Location: Hurecourt
(47.9030°N, 6.0653°E)
Time: 03:33:14
(UTC+00:00)

Cosmos 1697 Rocket - Visible Passes

Search period start: 23 October 2020 00:00
Search period end: 02 November 2020 00:00
Orbit: 832 x 843 km, 71.0° (Epoch: 22 October)

Date Brightness Start Highest point End Pass type
(mag) Time Alt. Az. Time Alt. Az. Time Alt. Az.
23 Oct 5.5 02:09:12 10° N 02:11:01 11° NNE 02:12:52 10° NE visible
23 Oct 3.9 03:51:20 10° NNW 03:56:41 40° NE 04:01:59 10° ESE visible
23 Oct 3.2 05:35:26 10° NW 05:40:37 38° WSW 05:45:47 10° S visible
23 Oct 4.4 18:45:37 10° S 18:46:59 17° SSE 18:46:59 17° SSE visible
24 Oct 5.5 01:53:13 10° NNE 01:54:44 11° NNE 01:56:15 10° NE visible
24 Oct 4.0 03:35:10 10° NNW 03:40:27 38° NE 03:45:42 10° ESE visible
24 Oct 3.1 05:19:11 10° NW 05:24:28 41° WSW 05:29:42 10° S visible
24 Oct 3.6 18:29:32 10° S 18:32:53 30° SE 18:32:53 30° SE visible
24 Oct 4.9 20:13:15 10° WSW 20:14:44 18° WSW 20:14:44 18° WSW visible
25 Oct 5.6 01:37:19 10° NNE 01:38:27 11° NNE 01:39:34 10° NE visible
25 Oct 4.1 03:19:01 10° NNW 03:24:14 36° NE 03:29:26 10° ESE visible
25 Oct 3.0 05:02:57 10° NW 05:08:18 44° WSW 05:13:36 10° S visible
25 Oct 3.2 18:13:28 10° S 18:18:28 34° ESE 18:18:40 34° E visible
25 Oct 4.1 19:56:58 10° SW 20:00:30 33° W 20:00:30 33° W visible
26 Oct 5.6 01:22:07 10° NNE 01:22:09 10° NNE 01:22:38 10° NNE visible
26 Oct 4.2 03:03:55 15° N 03:08:00 34° NE 03:13:08 10° ESE visible
26 Oct 2.9 04:46:44 10° NW 04:52:08 47° WSW 04:57:30 10° S visible
26 Oct 3.3 17:57:24 10° SSE 18:02:18 32° ESE 18:04:15 26° ENE visible
26 Oct 3.5 19:40:43 10° SW 19:46:04 46° NW 19:46:04 46° NW visible
27 Oct 4.2 02:49:21 23° N 02:51:46 33° NE 02:56:49 10° ESE visible
27 Oct 2.8 04:31:11 13° NW 04:35:58 50° WSW 04:41:23 10° S visible
27 Oct 3.4 17:41:21 10° SSE 17:46:09 30° ESE 17:49:37 16° NE visible
27 Oct 3.5 19:24:27 10° SW 19:29:53 49° NW 19:31:25 39° NNW visible
27 Oct 5.6 21:12:42 10° WNW 21:13:14 11° NW 21:13:14 11° NW visible
28 Oct 4.3 02:35:00 30° NE 02:35:32 31° NE 02:40:31 10° ESE visible
28 Oct 2.7 04:16:50 27° NW 04:19:47 53° WSW 04:25:16 10° S visible
28 Oct 3.5 17:25:19 10° SSE 17:30:00 28° ESE 17:34:43 10° NE visible
28 Oct 3.4 19:08:12 10° SW 19:13:40 52° WNW 19:16:32 27° N visible
28 Oct 5.4 20:56:13 10° WNW 20:58:19 13° NW 20:58:19 13° NW visible
29 Oct 4.6 02:20:49 26° ENE 02:20:49 26° ENE 02:24:12 10° ESE visible
29 Oct 2.7 04:02:40 50° WNW 04:03:37 57° WSW 04:09:08 10° S visible
29 Oct 3.6 17:09:17 10° SSE 17:13:51 26° ESE 17:18:26 10° NE visible
29 Oct 3.3 18:51:57 10° SW 18:57:27 56° WNW 19:01:25 19° NNE visible
29 Oct 5.3 20:39:45 10° WNW 20:42:45 14° NW 20:43:12 14° NNW visible
30 Oct 5.2 02:06:43 15° E 02:06:43 15° E 02:07:53 10° ESE visible
30 Oct 2.9 03:48:35 51° SSW 03:48:35 51° SSW 03:53:00 10° S visible
30 Oct 3.7 16:53:16 10° SSE 16:57:42 25° ESE 17:02:10 10° NE visible
30 Oct 3.2 18:35:43 10° SW 18:41:15 59° WNW 18:46:08 14° NNE visible
30 Oct 5.2 20:23:19 10° WNW 20:26:29 15° NW 20:27:54 14° NNW visible
31 Oct 4.1 03:34:31 26° S 03:34:31 26° S 03:36:51 10° SSE visible
31 Oct 3.1 18:19:28 10° SW 18:25:03 63° WNW 18:30:40 10° NNE visible
31 Oct 5.2 20:06:52 10° WNW 20:10:13 16° NW 20:12:28 13° N visible
01 Nov 5.0 03:20:24 12° SSE 03:20:24 12° SSE 03:20:42 10° SSE visible
01 Nov 3.0 18:03:16 10° SW 18:08:50 67° WNW 18:14:28 10° NNE visible
01 Nov 5.2 19:50:27 10° WNW 19:53:56 16° NW 19:56:55 12° N visible
